Tracking 32938 objects as of 12-Jan-2026
HD Live streaming from Space Station
objects crossing your sky now

YAOGAN-47

Track YAOGAN-47 now!
10-day predictions
YAOGAN-47 is classified as:


NORAD ID: 66988
Int'l Code: 2025-289A
Perigee: 501.2 km
Apogee: 503.0 km
Inclination: 97.5 °
Period: 94.5 minutes
Semi major axis: 6873 km
RCS: Unknown
Launch date: December 9, 2025
Source: People's Republic of China (PRC)
Launch site: Jiuquan Satellite Launch Center, China (JSC)
Your satellite tracking list
Your tracking list is empty




NASA's NSSDC Master Catalog

Two Line Element Set (TLE):
1 66988U 25289A   26009.13201801  .00003806  00000-0  16206-3 0  9991
2 66988  97.5221  79.3188 0001325 123.0680 237.0684 15.23597622  4716
Source of the keplerian elements: AFSPC